Weather History for KCPK - March, 2013

Change the Weather History Date:

Saturday, March 9, 2013

  Actual Average (KORF) Record (KORF)
Temperature  
Mean Temperature 46 °F 47 °F  
Max Temperature 59 °F 56 °F 82 °F (1964)
Min Temperature 32 °F 39 °F 20 °F (1996)
Degree Days  
Heating Degree Days 19 18  
Month to date heating degree days 170  
Since 1 July heating degree days 2739  
Cooling Degree Days 0 0  
Month to date cooling degree days 0  
Year to date cooling degree days 1  
Moisture  
Dew Point 27 °F    
Average Humidity 54    
Maximum Humidity 93    
Minimum Humidity 20    
Precipitation  
Precipitation 0.00 in 0.12 in 1.26 in (1976)
Month to date precipitation 1.06  
Year to date precipitation 7.58  
Snow  
Snow 0.00 in 0.00 in 2.70 in (1960)
Month to date snowfall 0.1  
Since 1 July snowfall 5.7  
Snow Depth -    
Sea Level Pressure  
Sea Level Pressure 30.26 in    
Wind  
Wind Speed 6 mph (NNW)    
Max Wind Speed 14 mph    
Max Gust Speed 20 mph    
Visibility 10 miles    
Events      
T = Trace of Precipitation, MM = Missing Value Source: NWS Daily Summary

Daily Weather History Graph

Daily Weather History Graph

Search for Another Location

Airport or City:

Trip Planner

Search our weather history database for the weather conditions in past years. The results will help you decide how hot, cold, wet, or windy it might be!

Date:

Astronomy

Mar. 09, 2013 Rise Set
Actual Time 6:24 AM EST 6:07 PM EST
Civil Twilight 5:58 AM EST 6:33 PM EST
Nautical Twilight 5:28 AM EST 7:03 PM EST
Astronomical Twilight 4:58 AM EST 7:33 PM EST
Moon 4:44 AM EST (3/9) 4:09 PM EST (3/9)
Length of Visible Light 12h 34m
Length of Day
11h 42m
Waning Crescent, 5% of the Moon is Illuminated
Mar 9
Waning Crescent
Mar 11
New
Mar 19
First Quarter
Mar 27
Full
Apr 3
Last Quarter

Hourly Weather History & Observations

Time (EST) Temp. Windchill Dew Point Humidity Pressure Visibility Wind Dir Wind Speed Gust Speed Precip Events Conditions
12:15 AM 42.8 °F 39.3 °F 30.2 °F 61% 30.20 in 10.0 mi NW 5.8 mph - N/A   Clear
12:35 AM 42.8 °F 39.3 °F 30.2 °F 61% 30.21 in 10.0 mi NW 5.8 mph - N/A   Clear
12:55 AM 42.8 °F 40.1 °F 30.2 °F 61% 30.21 in 10.0 mi NNW 4.6 mph - N/A   Clear
1:15 AM 42.8 °F 40.1 °F 30.2 °F 61% 30.21 in 10.0 mi NNW 4.6 mph - N/A   Clear
1:35 AM 41.0 °F 38.0 °F 30.2 °F 65% 30.22 in 10.0 mi NW 4.6 mph - N/A   Clear
1:55 AM 39.2 °F 35.9 °F 30.2 °F 70% 30.21 in 10.0 mi NNW 4.6 mph - N/A   Clear
2:15 AM 37.4 °F 34.9 °F 30.2 °F 75% 30.21 in 10.0 mi NW 3.5 mph - N/A   Clear
2:35 AM 37.4 °F 33.8 °F 30.2 °F 75% 30.21 in 10.0 mi NW 4.6 mph - N/A   Clear
2:55 AM 37.4 °F 33.8 °F 30.2 °F 75% 30.21 in 10.0 mi NW 4.6 mph - N/A   Clear
3:15 AM 37.4 °F 33.8 °F 30.2 °F 75% 30.21 in 10.0 mi NW 4.6 mph - N/A   Clear
3:35 AM 37.4 °F 33.8 °F 30.2 °F 75% 30.21 in 10.0 mi WNW 4.6 mph - N/A   Clear
3:55 AM 37.4 °F 34.9 °F 30.2 °F 75% 30.21 in 10.0 mi NW 3.5 mph - N/A   Clear
4:15 AM 39.2 °F 35.9 °F 30.2 °F 70% 30.22 in 10.0 mi NW 4.6 mph - N/A   Clear
4:35 AM 39.2 °F 35.9 °F 30.2 °F 70% 30.22 in 10.0 mi NNW 4.6 mph - N/A   Clear
4:55 AM 39.2 °F 37.0 °F 30.2 °F 70% 30.23 in 10.0 mi NW 3.5 mph - N/A   Clear
5:15 AM 37.4 °F 32.8 °F 30.2 °F 75% 30.23 in 10.0 mi NW 5.8 mph - N/A   Clear
5:35 AM 39.2 °F 35.9 °F 30.2 °F 70% 30.24 in 10.0 mi NNW 4.6 mph - N/A   Clear
5:55 AM 37.4 °F 32.8 °F 30.2 °F 75% 30.24 in 10.0 mi NW 5.8 mph - N/A   Clear
6:15 AM 39.2 °F 35.9 °F 30.2 °F 70% 30.25 in 10.0 mi NNW 4.6 mph - N/A   Clear
6:35 AM 39.2 °F 35.9 °F 30.2 °F 70% 30.25 in 10.0 mi NNW 4.6 mph - N/A   Clear
6:55 AM 39.2 °F 35.0 °F 28.4 °F 65% 30.26 in 10.0 mi NNW 5.8 mph - N/A   Clear
7:15 AM 41.0 °F 35.8 °F 28.4 °F 61% 30.26 in 10.0 mi NNW 8.1 mph - N/A   Clear
7:35 AM 42.8 °F 38.0 °F 28.4 °F 57% 30.27 in 10.0 mi NNW 8.1 mph 16.1 mph N/A   Clear
7:55 AM 42.8 °F 35.8 °F 26.6 °F 53% 30.28 in 10.0 mi North 13.8 mph 17.3 mph N/A   Clear
8:15 AM 42.8 °F 36.2 °F 26.6 °F 53% 30.28 in 10.0 mi NNW 12.7 mph 19.6 mph N/A   Clear
8:35 AM 44.6 °F 39.7 °F 28.4 °F 53% 30.29 in 10.0 mi NNW 9.2 mph 16.1 mph N/A   Clear
8:55 AM 44.6 °F 39.2 °F 26.6 °F 49% 30.29 in 10.0 mi NNW 10.4 mph 18.4 mph N/A   Clear
9:15 AM 44.6 °F 40.2 °F 26.6 °F 49% 30.30 in 10.0 mi NNW 8.1 mph - N/A   Clear
9:35 AM 46.4 °F 40.7 °F 26.6 °F 46% 30.30 in 10.0 mi NNW 12.7 mph - N/A   Clear
9:55 AM 46.4 °F 40.7 °F 26.6 °F 46% 30.30 in 10.0 mi NNW 12.7 mph 17.3 mph N/A   Clear
10:15 AM 48.2 °F - 26.6 °F 43% 30.30 in 10.0 mi NNW 10.4 mph 17.3 mph N/A   Clear
10:35 AM 48.2 °F - 26.6 °F 43% 30.30 in 10.0 mi North 13.8 mph 17.3 mph N/A   Clear
10:55 AM 50.0 °F - 26.6 °F 40% 30.30 in 10.0 mi NNW 11.5 mph - N/A   Clear
11:15 AM 50.0 °F - 24.8 °F 37% 30.30 in 10.0 mi North 10.4 mph 17.3 mph N/A   Clear
11:35 AM 51.8 °F - 23.0 °F 33% 30.30 in 10.0 mi NNW 13.8 mph 18.4 mph N/A   Clear
11:55 AM 51.8 °F - 23.0 °F 33% 30.29 in 10.0 mi NNW 10.4 mph 18.4 mph N/A   Clear
12:15 PM 51.8 °F - 21.2 °F 30% 30.29 in 10.0 mi NNW 12.7 mph 18.4 mph N/A   Clear
12:35 PM 53.6 °F - 21.2 °F 28% 30.28 in 10.0 mi North 12.7 mph 17.3 mph N/A   Clear
12:55 PM 53.6 °F - 23.0 °F 30% 30.27 in 10.0 mi NW 9.2 mph - N/A   Clear
1:15 PM 55.4 °F - 21.2 °F 26% 30.27 in 10.0 mi NW 11.5 mph 17.3 mph N/A   Clear
1:35 PM 55.4 °F - 19.4 °F 25% 30.26 in 10.0 mi NNW 10.4 mph - N/A   Clear
1:55 PM 55.4 °F - 17.6 °F 23% 30.26 in 10.0 mi North 8.1 mph - N/A   Clear
2:15 PM 57.2 °F - 15.8 °F 20% 30.25 in 10.0 mi NNW 8.1 mph - N/A   Clear
2:35 PM 57.2 °F - 17.6 °F 21% 30.25 in 10.0 mi NNE 10.4 mph - N/A   Clear
2:55 PM 59.0 °F - 17.6 °F 20% 30.26 in 10.0 mi NNW 10.4 mph - N/A   Clear
3:15 PM 59.0 °F - 19.4 °F 22% 30.25 in 10.0 mi NNW 8.1 mph - N/A   Clear
3:35 PM 57.2 °F - 19.4 °F 23% 30.25 in 10.0 mi North 8.1 mph - N/A   Clear
3:55 PM 57.2 °F - 19.4 °F 23% 30.25 in 10.0 mi North 6.9 mph - N/A   Clear
4:15 PM 57.2 °F - 19.4 °F 23% 30.25 in 10.0 mi North 5.8 mph - N/A   Clear
4:35 PM 57.2 °F - 17.6 °F 21% 30.25 in 10.0 mi North 6.9 mph - N/A   Clear
4:55 PM 57.2 °F - 19.4 °F 23% 30.26 in 10.0 mi North 4.6 mph - N/A   Clear
5:15 PM 57.2 °F - 21.2 °F 25% 30.25 in 10.0 mi North 4.6 mph - N/A   Clear
5:35 PM 57.2 °F - 23.0 °F 27% 30.25 in 10.0 mi NNE 4.6 mph - N/A   Clear
5:55 PM 55.4 °F - 24.8 °F 31% 30.26 in 10.0 mi NE 4.6 mph - N/A   Clear
6:15 PM 53.6 °F - 26.6 °F 35% 30.26 in 10.0 mi NNE 4.6 mph - N/A   Clear
6:35 PM 50.0 °F - 30.2 °F 47% 30.27 in 10.0 mi NE 8.1 mph - N/A   Clear
6:55 PM 48.2 °F - 30.2 °F 50% 30.27 in 10.0 mi NE 5.8 mph - N/A   Clear
7:15 PM 48.2 °F - 28.4 °F 46% 30.28 in 10.0 mi Calm Calm - N/A   Clear
7:35 PM 48.2 °F - 26.6 °F 43% 30.29 in 10.0 mi Calm Calm - N/A   Clear
7:55 PM 42.8 °F - 33.8 °F 70% 30.29 in 10.0 mi Calm Calm - N/A   Clear
8:15 PM 41.0 °F - 33.8 °F 76% 30.29 in 10.0 mi Calm Calm - N/A   Clear
8:35 PM 39.2 °F - 32.0 °F 75% 30.30 in 10.0 mi Calm Calm - N/A   Clear
8:55 PM 39.2 °F - 33.8 °F 81% 30.30 in 10.0 mi Calm Calm - N/A   Clear
9:15 PM 39.2 °F - 33.8 °F 81% 30.31 in 10.0 mi Calm Calm - N/A   Clear
9:35 PM 37.4 °F - 33.8 °F 87% 30.31 in 10.0 mi Calm Calm - N/A   Clear
9:55 PM 35.6 °F - 32.0 °F 87% 30.31 in 10.0 mi Calm Calm - N/A   Clear
10:15 PM 35.6 °F - 32.0 °F 87% 30.32 in 10.0 mi Calm Calm - N/A   Clear
10:35 PM 35.6 °F - 30.2 °F 81% 30.32 in 10.0 mi Calm Calm - N/A   Clear
10:55 PM 35.6 °F - 30.2 °F 81% 30.32 in 10.0 mi Calm Calm - N/A   Clear
11:15 PM 33.8 °F - 30.2 °F 87% 30.31 in 10.0 mi Calm Calm - N/A   Clear
11:35 PM 33.8 °F - 30.2 °F 87% 30.31 in 10.0 mi Calm Calm - N/A   Clear
11:55 PM 32.0 °F - 30.2 °F 93% 30.31 in 10.0 mi Calm Calm - N/A   Clear